When you browse on this site, cookies collect data to enhance your experience and personalize the content and advertising you see.
Visit our Privacy Policy to learn more. By continuing to use the site, you agree to this use of cookies and data.
  • In Österreich
  • Länderverzeichnis
  • Für 7 Tage
  • Wassertemperatur
  • Satellitenkarten
  • Wetterkarte
  • News
  • Widgets
  • user-avatar
    Anmelden

    Stündliche Wetter Kinshasa

    Heute, 20 November, Dienstag

    Zeit Temperatur Niederschläge Wind Luftdruck Luftfeuchtigkeit
    00:00 +22°C° 0 mm 0 m/S 706 mmHg 68%
    01:00 +22°C° 0 mm 0 m/S 706 mmHg 72%
    02:00 +22°C° 0 mm 0 m/S 706 mmHg 73%
    03:00 +21°C° 0 mm 0 m/S 706 mmHg 74%
    04:00 +21°C° 0 mm 0 m/S 706 mmHg 76%
    05:00 +21°C° 0 mm 0 m/S 706 mmHg 76%
    06:00 +24°C° 0 mm 1 m/S 707 mmHg 75%
    07:00 +23°C° 0 mm 0 m/S 707 mmHg 72%
    08:00 +26°C° 0 mm 0 m/S 708 mmHg 64%
    09:00 +28°C° 0 mm 0 m/S 708 mmHg 56%
    10:00 +33°C° 0 mm 1 m/S 708 mmHg 47%
    11:00 +34°C° 0 mm 1 m/S 708 mmHg 43%
    12:00 +35°C° 0 mm 1 m/S 707 mmHg 38%
    13:00 +37°C° 0 mm 2 m/S 707 mmHg 32%
    14:00 +36°C° 0 mm 1 m/S 706 mmHg 33%
    15:00 +35°C° 0 mm 1 m/S 706 mmHg 34%
    16:00 +35°C° 0 mm 1 m/S 705 mmHg 34%
    17:00 +33°C° 0 mm 1 m/S 706 mmHg 41%
    18:00 +30°C° 0 mm 1 m/S 706 mmHg 47%
    19:00 +26°C° 0 mm 0 m/S 706 mmHg 53%
    20:00 +25°C° 0 mm 0 m/S 706 mmHg 55%
    21:00 +24°C° 0 mm 0 m/S 707 mmHg 56%
    22:00 +23°C° 0 mm 0 m/S 707 mmHg 57%
    23:00 +23°C° 0 mm 0 m/S 707 mmHg 58%

    Morgen, 21 November, Mittwoch

    Zeit Temperatur Niederschläge Wind Luftdruck Luftfeuchtigkeit
    00:00 +22°C° 0 mm 0 m/S 707 mmHg 59%
    01:00 +22°C° 0 mm 0 m/S 706 mmHg 60%
    02:00 +21°C° 0 mm 0 m/S 706 mmHg 61%
    03:00 +23°C° 0 mm 1 m/S 706 mmHg 61%
    04:00 +23°C° 0 mm 1 m/S 706 mmHg 61%
    05:00 +23°C° 0 mm 1 m/S 706 mmHg 63%
    06:00 +23°C° 0 mm 1 m/S 707 mmHg 64%
    07:00 +24°C° 0 mm 1 m/S 707 mmHg 65%
    08:00 +27°C° 0 mm 1 m/S 708 mmHg 56%
    09:00 +30°C° 0 mm 1 m/S 708 mmHg 48%
    10:00 +33°C° 0 mm 1 m/S 708 mmHg 40%
    11:00 +34°C° 0 mm 1 m/S 708 mmHg 36%
    12:00 +36°C° 0 mm 1 m/S 707 mmHg 31%
    13:00 +37°C° 0 mm 1 m/S 707 mmHg 27%
    14:00 +37°C° 0 mm 1 m/S 706 mmHg 28%
    15:00 +36°C° 0 mm 1 m/S 705 mmHg 29%
    16:00 +36°C° 0 mm 1 m/S 705 mmHg 30%
    17:00 +33°C° 0 mm 1 m/S 705 mmHg 35%
    18:00 +30°C° 0 mm 1 m/S 705 mmHg 41%
    19:00 +28°C° 0 mm 1 m/S 705 mmHg 46%
    20:00 +27°C° 0 mm 1 m/S 706 mmHg 51%
    21:00 +24°C° 0 mm 0 m/S 706 mmHg 57%
    22:00 +23°C° 0 mm 0 m/S 707 mmHg 62%
    23:00 +23°C° 0 mm 0 m/S 706 mmHg 68%

    übermorgen, 22 November, Donnerstag

    Zeit Temperatur Niederschläge Wind Luftdruck Luftfeuchtigkeit
    00:00 +24°C° 0 mm 1 m/S 706 mmHg 74%
    01:00 +24°C° 0 mm 1 m/S 706 mmHg 80%
    02:00 +23°C° 0 mm 1 m/S 706 mmHg 84%
    03:00 +23°C° 0 mm 1 m/S 706 mmHg 88%
    04:00 +23°C° 0 mm 2 m/S 706 mmHg 91%
    05:00 +23°C° 0 mm 2 m/S 706 mmHg 88%
    06:00 +24°C° 0 mm 2 m/S 707 mmHg 85%
    07:00 +24°C° 0 mm 2 m/S 707 mmHg 81%
    08:00 +27°C° 0 mm 2 m/S 708 mmHg 73%
    09:00 +29°C° 0 mm 2 m/S 708 mmHg 65%
    10:00 +31°C° 0 mm 2 m/S 709 mmHg 56%
    11:00 +34°C° 0 mm 2 m/S 708 mmHg 49%
    12:00 +35°C° 0 mm 1 m/S 707 mmHg 42%
    13:00 +37°C° 0 mm 1 m/S 706 mmHg 34%
    14:00 +36°C° 0 mm 1 m/S 706 mmHg 36%
    15:00 +33°C° 0 mm 0 m/S 705 mmHg 38%
    16:00 +32°C° 0 mm 0 m/S 705 mmHg 40%
    17:00 +30°C° 0 mm 0 m/S 705 mmHg 46%
    18:00 +30°C° 0 mm 1 m/S 705 mmHg 52%
    19:00 +28°C° 0 mm 1 m/S 706 mmHg 58%
    20:00 +27°C° 0 mm 1 m/S 706 mmHg 63%
    21:00 +26°C° 0 mm 1 m/S 707 mmHg 69%
    22:00 +26°C° 0 mm 1 m/S 707 mmHg 74%
    23:00 +25°C° 0 mm 1 m/S 707 mmHg 77%

    23 November, Freitag

    Zeit Temperatur Niederschläge Wind Luftdruck Luftfeuchtigkeit
    00:00 +25°C° 0 mm 1 m/S 707 mmHg 80%
    01:00 +24°C° 0 mm 1 m/S 707 mmHg 82%
    02:00 +24°C° 0 mm 1 m/S 706 mmHg 84%
    03:00 +23°C° 0 mm 1 m/S 706 mmHg 86%
    04:00 +23°C° 0 mm 1 m/S 706 mmHg 88%
    05:00 +23°C° 0 mm 1 m/S 707 mmHg 87%
    06:00 +24°C° 0 mm 2 m/S 708 mmHg 85%
    07:00 +24°C° 0 mm 2 m/S 708 mmHg 83%
    08:00 +27°C° 0 mm 2 m/S 708 mmHg 74%
    09:00 +29°C° 0 mm 2 m/S 709 mmHg 65%
    10:00 +31°C° 0 mm 2 m/S 709 mmHg 57%
    11:00 +34°C° 0 mm 2 m/S 708 mmHg 50%
    12:00 +35°C° 0 mm 1 m/S 707 mmHg 44%
    13:00 +36°C° 0 mm 1 m/S 706 mmHg 38%
    14:00 +36°C° 0 mm 1 m/S 706 mmHg 39%
    15:00 +35°C° 0 mm 1 m/S 705 mmHg 40%
    16:00 +34°C° 0 mm 1 m/S 705 mmHg 41%
    17:00 +32°C° 0 mm 1 m/S 705 mmHg 46%
    18:00 +30°C° 0 mm 1 m/S 705 mmHg 51%
    19:00 +28°C° 0 mm 1 m/S 706 mmHg 56%
    20:00 +27°C° 0 mm 1 m/S 706 mmHg 59%
    21:00 +27°C° 0 mm 1 m/S 706 mmHg 63%
    22:00 +26°C° 0 mm 1 m/S 707 mmHg 66%
    23:00 +25°C° 0 mm 1 m/S 706 mmHg 69%

    24 November, Samstag

    Zeit Temperatur Niederschläge Wind Luftdruck Luftfeuchtigkeit
    00:00 +25°C° 0 mm 1 m/S 706 mmHg 72%
    01:00 +24°C° 0 mm 1 m/S 706 mmHg 75%
    02:00 +24°C° 0 mm 1 m/S 706 mmHg 77%
    03:00 +24°C° 0 mm 1 m/S 706 mmHg 80%
    04:00 +22°C° 0 mm 0 m/S 706 mmHg 82%
    05:00 +24°C° 0 mm 1 m/S 706 mmHg 81%
    06:00 +25°C° 0 mm 1 m/S 707 mmHg 80%
    07:00 +25°C° 0 mm 1 m/S 707 mmHg 79%
    08:00 +28°C° 0 mm 1 m/S 708 mmHg 69%
    09:00 +30°C° 0 mm 1 m/S 708 mmHg 60%
    10:00 +34°C° 0 mm 2 m/S 708 mmHg 50%
    11:00 +35°C° 0 mm 1 m/S 707 mmHg 45%
    12:00 +37°C° 0 mm 1 m/S 707 mmHg 40%
    13:00 +36°C° 0 mm 0 m/S 706 mmHg 34%
    14:00 +35°C° 0 mm 0 m/S 705 mmHg 37%
    15:00 +34°C° 0 mm 0 m/S 705 mmHg 40%
    16:00 +32°C° 0 mm 0 m/S 705 mmHg 43%
    17:00 +31°C° 0 mm 0 m/S 705 mmHg 47%
    18:00 +29°C° 0 mm 0 m/S 705 mmHg 51%
    19:00 +28°C° 0 mm 0 m/S 706 mmHg 55%
    20:00 +29°C° 0 mm 1 m/S 706 mmHg 58%
    21:00 +28°C° 0 mm 1 m/S 707 mmHg 61%
    22:00 +27°C° 0 mm 1 m/S 707 mmHg 64%
    23:00 +27°C° 0 mm 1 m/S 707 mmHg 67%

    25 November, Sonntag

    Zeit Temperatur Niederschläge Wind Luftdruck Luftfeuchtigkeit
    00:00 +26°C° 0 mm 1 m/S 706 mmHg 71%
    01:00 +25°C° 0 mm 1 m/S 706 mmHg 75%
    02:00 +25°C° 0 mm 1 m/S 706 mmHg 77%
    03:00 +25°C° 0 mm 1 m/S 706 mmHg 78%
    04:00 +24°C° 0 mm 1 m/S 705 mmHg 80%
    05:00 +25°C° 0 mm 1 m/S 706 mmHg 79%
    06:00 +25°C° 0 mm 1 m/S 706 mmHg 79%
    07:00 +26°C° 0 mm 2 m/S 707 mmHg 78%
    08:00 +28°C° 0 mm 2 m/S 707 mmHg 69%
    09:00 +30°C° 0 mm 2 m/S 707 mmHg 61%
    10:00 +34°C° 0 mm 2 m/S 708 mmHg 52%
    11:00 +35°C° 0 mm 1 m/S 707 mmHg 46%
    12:00 +36°C° 0 mm 1 m/S 706 mmHg 40%
    13:00 +39°C° 0 mm 1 m/S 706 mmHg 34%
    14:00 +37°C° 0 mm 1 m/S 705 mmHg 39%
    15:00 +33°C° 0 mm 0 m/S 705 mmHg 43%
    16:00 +31°C° 0 mm 0 m/S 704 mmHg 47%
    17:00 +32°C° 0 mm 1 m/S 704 mmHg 52%
    18:00 +30°C° 0 mm 1 m/S 705 mmHg 58%
    19:00 +28°C° 0 mm 1 m/S 705 mmHg 63%
    20:00 +28°C° 0 mm 1 m/S 705 mmHg 68%
    21:00 +27°C° 0 mm 1 m/S 706 mmHg 73%
    22:00 +26°C° 0 mm 1 m/S 706 mmHg 78%
    23:00 +25°C° 0.1 mm 1 m/S 705 mmHg 82%
    Mehr zeigen